Flag for Colombia Weather past 2 weeks in Bogota, Colombia

Now
52 °F

Partly cloudy.


Feels Like: 49 °F
Forecast: 51 / 59 °F
Wind: 7 mph from Northwest

Location: Bogota / Eldorado


UV Index: 5 (Moderate)

Visibility: N/A


Pressure: 30.32 "Hg

Humidity: 100%

Dew point: 52 °F

Location of BogotaLocation

Historic Weather in Bogota

°F

Bogota temperature yesterday

Maximum temperature yesterday: 63 °F (at 10:00 AM)
Minimum temperature yesterday: 54 °F (at 12:00 AM)
Average temperature yesterday: 57 °F

Past Weeks' High & Low Weather Summary

 TemperatureHumidityPressure
High72 °F (Apr 14, 12:00 PM)100% (Apr 4, 12:00 AM)30.41 "Hg (Apr 4, 12:00 AM)
Low43 °F (Apr 13, 4:00 AM)35% (Apr 9, 2:00 PM)30.17 "Hg (Apr 14, 4:00 PM)
Average58 °F73%30.31 "Hg
* Reported Apr 1 10:00 PM — Apr 16 10:00 PM, Bogota, Weather by CustomWeather, © 2014

Note: Actual official high and low records may vary slightly from our data, if they occured in-between our weather recording intervals... More about our weather records

Advertising

Historic Weather Conditions — Data for Previous 24 hours

 ConditionsComfort  
Time TempWeatherWind HumidityBarometerVisibility
10:00 PM
Apr 16
52 °FPartly cloudy.6 mph100%30.32 "HgN/A
9:00 PM54 °FPartly cloudy.6 mph88%30.30 "HgN/A
8:00 PM59 °FPassing clouds.No wind72%30.27 "HgN/A
7:00 PM59 °FScattered showers. Passing clouds.6 mph68%30.25 "HgN/A
6:00 PM59 °FScattered showers. Scattered clouds.8 mph72%30.24 "Hg6 mi
5:00 PM63 °FScattered showers. Scattered clouds.14 mph68%30.21 "Hg6 mi
4:00 PM64 °FPassing clouds.7 mph68%30.19 "HgN/A
3:00 PM64 °FScattered clouds.14 mph73%30.22 "Hg6 mi
2:00 PM64 °FScattered showers. Scattered clouds.7 mph68%30.25 "Hg6 mi
1:00 PM64 °FPartly sunny.2 mph56%30.29 "Hg6 mi
12:00 PM64 °FBroken clouds.5 mph64%30.32 "HgN/A
11:00 AM64 °FBroken clouds.5 mph60%30.34 "HgN/A
10:00 AM63 °FBroken clouds.2 mph68%30.36 "HgN/A
9:00 AM59 °FBroken clouds.7 mph77%30.36 "HgN/A
8:00 AM55 °FPartly sunny.5 mph88%30.34 "HgN/A
6:00 AM50 °FPartly sunny.3 mph100%30.30 "HgN/A
5:00 AM52 °FPassing clouds.2 mph94%30.28 "HgN/A
4:00 AM54 °FPartly cloudy.2 mph94%30.28 "HgN/A
3:00 AM52 °FPassing clouds.2 mph94%30.30 "HgN/A
2:00 AM54 °FPassing clouds.2 mph94%30.30 "HgN/A
1:00 AM54 °FPartly cloudy.2 mph94%30.32 "HgN/A
12:00 AM54 °FPassing clouds.5 mph94%30.34 "HgN/A
11:00 PM
Apr 15
54 °FDrizzle. Fog.3 mph100%30.35 "Hg3 mi
Weather by CustomWeather, © 2014

See weather overview